Location: Demre
(36.2444°N, 29.9850°E)
Time: 05:41:14
(UTC+00:00)

S3M - Pass Details

Date: 11 March 2026
Orbit: 948 x 1004 km, 83.0° (Epoch: 21 April)

Event Time Altitude Azimuth Distance (km) Brightness Sun altitude
Rises 18:01:09 0° 355° (N) 3,736 7.3 -24.3°
Reaches altitude 10° 18:03:43 10° 358° (N) 2,780 6.6 -24.8°
Maximum altitude 18:10:06 73° 82° (E) 1,039 3.9 -26.0°
Enters shadow 18:11:24 57° 145° (SE) 1,160 4.1 -26.3°
